MyTimes logo

TIMES

Webb Imagery

3/03/2012
Cowes Classic
500m Swim / 4.0km Run

(Click on competitor name to view personalised results)

Name
Race #
Category
Team Name
Time
(h:mm:ss)
Avg Speed
km/hr
OAll
Place
Cat
Place
CHENCO Nathan#805Team Male" CHENLEYMAN"0:18:38 14.5 11
KIBBY Mitchell#260Senior Male" "0:19:16 14 21
CHRONIS James#247Senior Male" "0:19:21 14 32
BUSCHKUEHL Nathan#263Senior Male" "0:19:26 13.9 43
PLANT Luke#845Team Male" "0:19:41 13.7 52
MCGUIRE Nick#234Senior Male" "0:19:48 13.6 64
KING Dean#219Senior Male" "0:20:33 13.1 75
BONDARENKO Sascha#319Senior Male" "0:20:33 13.1 86
MEYER Jamie#271Senior Male" "0:20:34 13.1 97
BATES Oliver#836Team Male" "0:20:36 13.1 103
WALPOLE Stuart#237Senior Male" "0:20:45 13 118
MEAGHER John#4840-49 Male" "0:20:50 13 121
MUNRO Paul#311Senior Male" "0:20:56 12.9 139
SORATI Ty#857Team Male" "0:21:14 12.7 144
PAGE Troy#841Team Male" "0:21:34 12.5 155
GUILLE Tim#226Senior Male" "0:21:51 12.4 1610
POLIZZI Alex#239Senior Male" "0:21:53 12.3 1711
PHILLIPS Tyler#296Senior Male" "0:21:56 12.3 1812
GOUGH Bowen#821Team Male" "0:21:59 12.3 196
HARRIS Raeleigh#2340-49 Female" "0:22:12 12.2 201
WACHTER Aurel#816Team Male" SCREEN-WACHTER"0:22:23 12.1 217
ELLIS Chris#859Team Mixed" "0:22:27 12 221
NORMAN/DICKSON Jeff/jordy#830Team Male" "0:22:32 12 238
COLLINS Linda And#826Team Mixed" "0:22:40 11.9 242
COLOMB Keith#323Senior Male" "0:22:44 11.9 2513
MALIOS Paul#807Team Mixed" VIRGINIA"0:22:50 11.8 263
CROWE Susie#847Team Mixed" "0:22:58 11.8 274
STINEAR Mick#810Team Male" STRENGTH"0:22:59 11.7 289
CONNELL Michael#850Team Male" "0:23:00 11.7 2910
MANTEIT Michael#109Junior Male" "0:23:03 11.7 301
ROLLAND Thierry#6640-49 Male" "0:23:06 11.7 312
DRAPAC James#262Senior Male" "0:23:13 11.6 3214
KAYE-HELMOT Georgia#843Team Female" "0:23:13 11.6 331
BILL Greg#5040-49 Male" "0:23:13 11.6 343
ARMSTRONG Emma#231Senior Female" "0:23:19 11.6 351
LUND Sarah#203Senior Female" "0:23:25 11.5 362
INGLIS Vicki#229Senior Female" "0:23:32 11.5 373
BOURKE Lucy#856Team Mixed" "0:23:38 11.4 385
BUTLER Laura#93Junior Female" "0:23:45 11.4 391
HOLUB Taylor#276Senior Male" "0:23:47 11.4 4015
FLEISNER Rob#10250+ Male" "0:23:47 11.4 411
GIN Elliot#71Junior Male" "0:23:50 11.3 422
MARTIN Charles#238Senior Male" "0:23:58 11.3 4316
HANLEY Philip#6750+ Male" "0:24:03 11.2 442
HENDRICKS Vaughn#325Senior Male" "0:24:07 11.2 4517
RIORDAN Scott#801Team Male" ADAM ROGERS"0:24:07 11.2 4611
WILSON Michael#814Team Mixed" BEAUTY AND THE BEAST"0:24:11 11.2 476
GREEN Chris#230Senior Male" "0:24:16 11.1 4818
GRIFFTIHS Kylie#29840-49 Female" "0:24:17 11.1 492
DRENNAN Amanda#844Team Female" "0:24:21 11.1 502
PLOSE Rhys#241Senior Male" "0:24:22 11.1 5119
GROVES Tamara#853Team Female" "0:24:23 11.1 523
TERLICH Chris#835Team Male" "0:24:33 11 5312
DISTON Mitch#842Team Male" "0:24:33 11 5413
HARRISON Hamish#266Senior Male" "0:24:35 11 5520
MACGILL Fiona#829Team Mixed" "0:24:36 11 567
SESTO Vince#212Senior Male" "0:24:45 10.9 5721
BENNETT James#92Junior Male" "0:24:45 10.9 583
LEWIS Dayne Lynd#282Senior Male" "0:24:47 10.9 5922
BUTT Chloe#232Senior Female" "0:24:48 10.9 604
HEIL Jackson#297Senior Male" "0:24:51 10.9 6123
JUDD Alex#286Senior Male" "0:24:52 10.9 6224
BIBBY Anthony#4940-49 Male" "0:25:00 10.8 634
PAGE Stephen#4740-49 Male" "0:25:02 10.8 645
SMITH Corey#840Junior Male" "0:25:07 10.7 654
HUTTON Chris#228Senior Male" "0:25:08 10.7 6625
BOND Marcus#245Senior Male" "0:25:15 10.7 6726
COULSON Rob#813Team Male" KOKODA BOYZ"0:25:23 10.6 6814
CROWE Jess#846Team Female" "0:25:25 10.6 694
CORBETT Jim#8640-49 Male" "0:25:25 10.6 706
GIN Mitchell#70Junior Male" "0:25:32 10.6 715
CLARKSON Anna#307Senior Female" "0:25:36 10.5 725
PRICE Brodie#209Senior Male" "0:25:39 10.5 7327
FLANAGAN David#8940-49 Male" "0:25:44 10.5 747
ROBERTS Simon#302Senior Male" "0:25:53 10.4 7528
YUSKO William#10350+ Male" "0:25:54 10.4 763
TURNER Peter#5750+ Male" "0:25:56 10.4 774
SALTON Marcus#207Senior Male" "0:26:01 10.4 7829
HISCOCK Luke#320Senior Male" "0:26:02 10.4 7930
MAGANN Jarrod#267Senior Male" "0:26:03 10.4 8031
ABBOTT Eldon#285Senior Male" "0:26:03 10.4 8132
WEIR Jake#214Senior Male" "0:26:04 10.4 8233
LEGGE Andrew#220Senior Male" "0:26:06 10.3 8334
LANDELL Kara#322Senior Female" "0:26:08 10.3 846
STINEAR Tim#10140-49 Male" "0:26:08 10.3 858
DRAPAC Stephen#261Senior Male" "0:26:13 10.3 8635
BUTLER Clare#94Junior Female" "0:26:13 10.3 872
SPOTTISWOOD James#275Senior Male" "0:26:15 10.3 8836
TURNER Georgia#52Junior Female" "0:26:16 10.3 893
TURNER Beau#253Senior Male" "0:26:24 10.2 9037
PAPE Christophe#233Senior Male" "0:26:26 10.2 9138
COLLA Peter#824Team Male" "0:26:26 10.2 9215
SALLMANN Nick#259Senior Male" "0:26:30 10.2 9339
CUMBERS Linda#833Team Mixed" "0:26:30 10.2 948
JOHNSON Glen#7350+ Male" "0:26:30 10.2 955
TURNER Christian#244Senior Male" "0:26:33 10.2 9640
CANN Lara#264Senior Female" "0:26:35 10.2 977
MACQUIRE Ben#854Team Male" "0:26:36 10.2 9816
ORYZAK Dion#204Senior Male" "0:26:42 10.1 9941
HARRIS Michelle#249Senior Female" "0:26:42 10.1 1008
BENDTSEN Katrina#28Junior Female" "0:26:42 10.1 1014
ONLEY Thomas#288Senior Female" "0:26:46 10.1 1029
WRIGHT Casey#115Junior Female" "0:26:47 10.1 1035
PIETKIENZICZ Mick#861Team Male" "0:26:49 10.1 10417
JORDAN-HILL Lisa#804Team Female" TEAM MACCY"0:26:51 10.1 1055
DISTON Ashlee#76Junior Female" "0:26:51 10.1 1066
BUDGE David#1750+ Male" "0:26:55 10 1076
SMITH Dennis#1350+ Male" "0:26:57 10 1087
MATTHEWS Jack#287Senior Male" "0:26:58 10 10942
CHISHOLM Andy#4540-49 Male" "0:26:58 10 1109
TEMENNEPE Luke#837Team Male" "0:27:00 10 11118
CHANDLER Jacqui#1440-49 Female" "0:27:00 10 1123
BLAIR Jack#63Junior Male" "0:27:00 10 1136
BROWNE Rebecca#211Senior Female" "0:27:01 10 11410
MANNING Simon#831Team Male" "0:27:02 10 11519
SULLIVAN Matt#5Junior Male" "0:27:08 10 1167
MANNIX Benjamin#802Team Mixed" HAIRY MACLARY"0:27:15 9.9 1179
ZANETIDIS Con#7550+ Male" "0:27:15 9.9 1188
DESSENT Tiger#2040-49 Male" "0:27:18 9.9 11910
CUNNINGHAM Emma#273Senior Female" "0:27:27 9.8 12011
BAMBERY Luke#294Senior Male" "0:27:28 9.8 12143
MAHON Debbi#270Senior Female" "0:27:33 9.8 12212
THOMPSON Anna#312Senior Female" "0:27:36 9.8 12313
GOLDIE Tony#9540-49 Male" "0:27:38 9.8 12411
CHESHIRE Tom#252Senior Male" "0:27:40 9.8 12544
HARBINSON Yvette#269Senior Female" "0:27:45 9.7 12614
HALE Tyler#284Senior Male" "0:27:54 9.7 12745
TYRERELL Sarah#827Team Female" "0:27:54 9.7 1286
TAYLOR Shane#61Junior Male" "0:27:54 9.7 1298
SHANNON Troy#4140-49 Male" "0:27:56 9.7 13012
CORMACK Steve#832Team Male" "0:28:00 9.6 13120
BURRIDGE Kellie#809Team Mixed" KEL AND JAZ"0:28:03 9.6 13210
PRATT Jo#309Senior Female" "0:28:09 9.6 13315
FREEDMAN Joshua#216Senior Male" "0:28:15 9.6 13446
DESSENT Aaron#59Junior Male" "0:28:15 9.6 1359
RODRIQUEZ Greg#806Team Mixed" GKLA"0:28:20 9.5 13611
GRAY Jarrod#327Senior Male" "0:28:22 9.5 13747
ALDERSON Allan#6950+ Male" "0:28:23 9.5 1389
HERBERT Duncan#9040-49 Male" "0:28:29 9.5 13913
GRAVES Daniel#291Senior Male" "0:28:33 9.5 14048
WEBB Brendan#254Senior Male" "0:28:33 9.5 14149
GROVES Travis#51Junior Male" "0:28:35 9.4 14210
ASHBY Rob#255Senior Male" "0:28:38 9.4 14350
BEAUMONT Ashley#308Senior Male" "0:28:38 9.4 14451
HARRIS Simon#250Senior Male" "0:28:39 9.4 14552
SANCHEZ Julien#301Senior Male" "0:28:41 9.4 14653
MALIOS Todd#3240-49 Male" "0:28:47 9.4 14714
FRASER Judie#314Senior Female" "0:28:53 9.3 14816
ROMANIS Susie#205Senior Female" "0:28:54 9.3 14917
DESSENT Mitch#58Junior Male" "0:28:58 9.3 15011
BROWN Silverfox#8050+ Male" "0:28:59 9.3 15110
STREEFKERK Helen#839Team Female" "0:29:02 9.3 1527
MCINDOE Kayla#224Senior Female" "0:29:06 9.3 15318
BELL Ashlea#855Team Female" "0:29:08 9.3 1548
WEBBER Daniel#105Junior Male" "0:29:08 9.3 15512
TRIGELLIS-SMITH Anna#215Senior Female" "0:29:11 9.3 15619
MILLER Steve#324Senior Male" "0:29:15 9.2 15754
ASHMAN Ruby#817Team Female" RUBY & BEC"0:29:15 9.2 1589
WHYTE Ken#7950+ Male" "0:29:15 9.2 15911
MARSHALL Ian#858Team Mixed" "0:29:17 9.2 16012
PEARCE Heath#248Senior Male" "0:29:19 9.2 16155
HUNT MP Greg#1540-49 Male" "0:29:19 9.2 16215
JACOBS Suzie#819Team Female" HAVING FUN"0:29:20 9.2 16310
JUDD Gary#8350+ Male" "0:29:22 9.2 16412
JOHNSON Ray#4240-49 Male" "0:29:22 9.2 16516
OGIER Troy#256Senior Male" "0:29:23 9.2 16656
OLSEN Andrea#280Senior Female" "0:29:28 9.2 16720
ANDERSON Kerry#305Senior Female" "0:29:29 9.2 16821
WESTON Sophie#91Junior Female" "0:29:33 9.1 1697
WIGISHOFF Nicolas#242Senior Male" "0:29:43 9.1 17057
BAXTER Virginia#8840-49 Female" "0:29:47 9.1 1714
CHISHOLM Linda#201Senior Female" "0:29:51 9 17222
MATTHEWS Bob#5350+ Male" "0:29:51 9 17313
MC CLELLAND Laura#848Team Mixed" "0:29:52 9 17413
TAYLOR Jack#60Junior Male" "0:29:56 9 17513
HADAWAY Emma#217Senior Female" "0:29:57 9 17623
PIERA Joel#62Junior Male" "0:30:00 9 17714
MAYES Bruce#1250+ Male" "0:30:03 9 17814
TUFF Stephen#306Senior Male" "0:30:10 9 17958
GRAY Peter#11850+ Male" "0:30:10 9 18015
STNEAR Melinda#851Team Female" "0:30:12 8.9 18111
BEDWELL Ryan#315Senior Male" "0:30:14 8.9 18259
BUNTMAN Shane#268Senior Male" "0:30:15 8.9 18360
MCINNES Carmen#811Team Female" CARTE"0:30:29 8.9 18412
HIBBLE Jenny#4650+ Female" "0:30:29 8.9 1851
HERRINGTON Cameron#9840-49 Male" "0:30:29 8.9 18617
MAYES Sophie#54Junior Female" "0:30:30 8.9 1878
CARROLL Geoff#820Team Male" "0:30:34 8.8 18821
HEMPENSTALL Ella#251Senior Female" "0:30:35 8.8 18924
POORE Patrick#243Senior Male" "0:30:36 8.8 19061
FOLEY Matthew#295Senior Male" "0:30:38 8.8 19162
MUSCHIALLI Zac#316Senior Male" "0:30:45 8.8 19263
JOHNSTONE Chris#5540-49 Male" "0:30:48 8.8 19318
MC DONALD Kellie#279Senior Female" "0:30:52 8.7 19425
CAIN Greg#9650+ Male" "0:30:53 8.7 19516
BOURKE Edward#860Team Mixed" "0:30:54 8.7 19614
CAMERON Jane#8450+ Female" "0:31:02 8.7 1972
WOODWARD Alison#6840-49 Female" "0:31:03 8.7 1985
VANDERHEYDEN Natalie#828Team Female" "0:31:09 8.7 19913
DODD Jennifer#3050+ Female" "0:31:12 8.7 2003
RUSSELL Geoff#326Senior Male" "0:31:29 8.6 20164
CONTE Leah#815Team Mixed" SNOWBALL"0:31:31 8.6 20215
MC CORMACK Sarah#838Team Female" "0:31:35 8.5 20314
MARSHALL Sarah#274Senior Female" "0:31:49 8.5 20426
WEBBER Neil#11050+ Male" "0:31:50 8.5 20517
DOWNIE Brock#317Senior Male" "0:31:55 8.5 20665
DENT James#281Senior Male" "0:31:55 8.5 20766
WRAY Craig#313Senior Male" "0:32:03 8.4 20867
O'DONOHUE Mark#7840-49 Male" "0:32:03 8.4 20919
WAGNER Zach#117Junior Male" "0:32:26 8.3 21015
EGAN Holly#87Junior Female" "0:32:31 8.3 2119
PRAIN Ian#2950+ Male" "0:32:33 8.3 21218
RITTER Susan#818Team Female" SUE & SIOBHAN"0:32:34 8.3 21315
GREENER Simon#303Senior Male" "0:32:47 8.2 21468
MERRICK Jenny#1650+ Female" "0:32:47 8.2 2154
ARNOLD Darren#11240-49 Male" "0:32:50 8.2 21620
MARSH Ashton#278Senior Female" "0:32:58 8.2 21727
HOCKING Hayleigh#304Senior Female" "0:33:07 8.2 21828
SKARAJEW Nicholas#222Senior Male" "0:33:07 8.2 21969
MANNIX Tim#321Senior Male" "0:33:09 8.1 22070
HERBERT Suzie#862Team Female" "0:33:20 8.1 22116
O'KEEFE Anne#852Team Mixed" "0:33:24 8.1 22216
FITZGERALD Rick#950+ Male" "0:33:29 8.1 22319
BREMNER James#257Senior Male" "0:33:36 8 22471
EMMETT Niki#8140-49 Female" "0:33:56 8 2256
STAFFORD Rachel#8240-49 Female" "0:34:04 7.9 2267
MORRISON Kerry#11150+ Female" "0:34:14 7.9 2275
CLEELAND Pip#3340-49 Female" "0:34:21 7.9 2288
WHYTE Patrick#258Senior Male" "0:34:30 7.8 22972
WEBBER Simone#10840-49 Female" "0:34:51 7.7 2309
PHILLIPS Matthew#272Senior Male" "0:34:58 7.7 23173
CHENCO Carol#350+ Female" "0:35:24 7.6 2326
HANSON Thomas#265Senior Male" "0:35:30 7.6 23374
HOPKINS Kim#218Senior Female" "0:35:34 7.6 23429
EGAN Karen#8540-49 Female" "0:35:42 7.6 23510
CORMACK Stuart#290Senior Male" "0:35:52 7.5 23675
ANGLIM Bernard#4450+ Male" "0:36:28 7.4 23720
MUIR Anthony#10040-49 Male" "0:37:07 7.3 23821
JOHNSON Travis#240Senior Male" "0:37:21 7.2 23976
WRIGHT Philip#9750+ Male" "0:37:23 7.2 24021
COUSINS Richard#4340-49 Male" "0:37:36 7.2 24122
MC DONALD Stephanie#318Senior Female" "0:37:46 7.1 24230
BLENNERHASSETT Reuben#283Senior Male" "0:37:52 7.1 24377
HOLLINS Jenny#3440-49 Female" "0:38:06 7.1 24411
LOEZ Bernard#1950+ Male" "0:38:53 6.9 24522
CROOT Alan#11340-49 Male" "0:39:21 6.9 24623
LLOYD Greg#740-49 Male" "0:40:07 6.7 24724
COLE Ian#6450+ Male" "0:40:49 6.6 24823
KONTOGOURIS Earlene#11450+ Female" "0:40:51 6.6 2497
HOWE Andrew#849Team Mixed" "0:41:17 6.5 25017
HARPER Megan#206Senior Female" "0:41:30 6.5 25131
PAULET Cath#208Senior Female" "0:41:30 6.5 25232
JONES Danene#277Senior Female" "0:41:47 6.5 25333